Location: Unspecified
(0.0000°N, 0.0000°E)
Time: 20:47:04
(UTC+00:00)

Hubble Space Telescope - Pass Details

Date: 21 March 2023
Orbit: 527 x 530 km, 28.5° (Epoch: 30 March)

Event Time Altitude Azimuth Distance (km) Brightness Sun altitude
Rises 20:06:37 0° 232° (SW) 2,656 5.0 -29.9°
Reaches altitude 10° 20:08:55 10° 228° (SW) 1,765 3.9 -30.4°
Enters shadow 20:09:52 16° 224° (SW) 1,409 3.3 -30.7°
